Location: Buch
(49.7331°N, 12.1098°E)
Time: 03:56:28
(UTC+00:00)

BREEZE-M DEB (TANK) - Pass Details

Date: 12 May 2021
Orbit: 276 x 16788 km, 49.5° (Epoch: 23 June)

Event Time Altitude Azimuth Distance (km) Brightness Sun altitude
Rises 21:25:13 0° 280° (W) 1,942 5.6 -18.2°
Reaches altitude 10° 21:26:49 10° 270° (W) 1,119 4.2 -18.3°
Enters shadow 21:27:32 19° 258° (WSW) 797 3.3 -18.4°
